STARLINK-31363, 59782

Orbit data source: Space-Track

STARLINK-31363, 59782 is a payload satellite owned by SpaceX/Seattle (US) in LEO that was launched on Sat, 18 May 2024 UTC via an FALCON 9 launch vehicle from the Air Force Eastern Test Range (AFETR). Payload-class satellites include a variety of spacecraft equipped with specific instruments for various scientific and technological missions. These include communications satellites like Starlink; space stations such as the ISS; scientific satellites like the Hubble; Earth observation satellites from companies like Planet Labs, Umbra, and HawkEye 360; GPS; miniature CubeSats for education and research; and military/defense satellites.

Loading next visibility...
Identifier
59782, 2024-093A
Orbit
LEO
Country
Flag of USUS
Related business
Manufacturer
SpaceX/Seattle
Mission
Operational Commercial Communications
Bus & Motor
STARLINK V2M, Unknown motor
Mass
730 kg wet, ~700 kg dry
Launch date (UTC)
2024-05-18 (1 year ago)
Launch vehicle
FALCON 9
Launch site
Air Force Eastern Test Range (AFETR)
Object type
Payload
Rocket body
Debris
Shape & HBR
Box + 2 Pan, 17.7 m
Radar Cross Section
33.884 m², Large (>1 m²)

Expand to show TLE details & history
Last TLE update: 2 hours ago

TLE from 2 hours ago
0 STARLINK-31363
1 59782U 24093A   25295.21226705  .00001359  00000-0  58885-4 0  9993
2 59782  43.0020 267.7381 0000964 259.6788 100.3955 15.27579495 81556
Epoch: 2025-10-22T05:05Z
TLE epoch observation values (Epoch: 2025-10-22T05:05:39.873Z)
Latitude
-0°
Longitude
160.43284°
Altitude
482.946 km
Speed
7.626 km/s
True Right ascension
17h 50m 57s
True Declination
0° 00' 00"
Sunlit
Object was in daylight at epoch
Visualization orbit readout
Latitude
Unknown
Longitude
Unknown
Altitude
Unknown
Speed
Unknown
Apparent Right ascension
Unknown
Apparent Declination
Unknown
Sunlit
N/A
Visualization observer readout
Local Sidereal Time
02:26:28
Azimuth
Unknown
Elevation
Unknown
Doppler factor
Unknown
Orbital elements
Apogee altitude
485.657 km
Perigee altitude
484.334 km
Semi-major axis
6,863.132 km
Eccentricity
0.0001
Inclination
43.002°
RAAN
267.7381°
Arg. of periapsis
259.6788°
True anomaly
100.40637°
Mean anomaly
100.3955°
Eccentric anomaly
100.40093°
Mean motion
3.81733 °/min
Orbital period
94.31 mins
BSTAR
0.000058885
Loading maneuver chart data...
Computing Atmospheric mass density...
Loading historical data...
Loading historical data...
Loading historical data...
Loading historical data...
Loading historical data...
Loading historical data...
Loading historical data...

Documentation

Showing up to 5 results
|